Tracking 29892 objects as of 21-Nov-2024
HD Live streaming from Space Station
objects crossing your sky now

ARIANE 5 R/B

Track ARIANE 5 R/B now!


NORAD ID: 40942
Int'l Code: 2015-054C
Perigee: 218.1 km
Apogee: 29,906.9 km
Inclination: 6.6 °
Period: 520.5 minutes
Semi major axis: 21433 km
RCS: Unknown
Launch date: September 30, 2015
Source: France (FR)
Launch site: FRENCH GUIANA (FRGUI)

Note: This is a ROCKET BODY
Your satellite tracking list
Your tracking list is empty




NASA's NSSDC Master Catalog

Two Line Element Set (TLE):
1 40942U 15054C   24325.81805535  .00017125  00000-0  14560-2 0  9999
2 40942   6.6242  30.6760 6925803   1.1629 359.9575  2.76670901 82950
Source of the keplerian elements: AFSPC